Погода в Пурвокерто

Индонезия     7°25′33″S   109°15′06″E
В апреле 2022 года жителям России запретили посещать сайт meteo.paraplan.net по решению Генеральной прокуратуры. Аудитория сайта уменьшилась в 10 раз. Владельцы сайта не видят смысла в поддержке погодного сервера в таких условиях. Сайт будет закрыт в октябре.
темп.,
°C
ветер,
м/с
пор.,
м/с
влажн.,
%
обл.,
%
осадки,
мм/ч
давл.,
гПа
погр.,
м
25 сентября, вс
вс2501:00+24вюв139399 1.9 1011177
04:00+23в129389 1.0 101182
07:00+25в248787 1.6 1013361
10:00+29юв346638 0.4 10121278
13:00+29ююв5567100 0.8 10101149
16:00+27юв457238 0.3 1009922
19:00+24вюв258961 0.7 1011227
22:00+24всв119141 0.3 101365
26 сентября, пн
пн2601:00+23всв129339 1.1 101157
04:00+23всв1193100 1.0 101131
07:00+25всв1485100 1.4 1013273
10:00+28юв356535 0.3 10131243
13:00+29ююв5561100 0.5 10101334
16:00+28ююв456631 0.2 10091160
19:00+24вюв138834 0.7 1011100
22:00+23всв119192 0.8 101232
27 сентября, вт
вт2701:00+22ссв119293 1.3 101019
04:00+22св1192100 0.4 101017
07:00+24всв1184100 0.4 1012187
10:00+27юв2371100 0.4 1011987
13:00+27ююв447392 1.0 1008892
16:00+26ююв347691 0.3 1008809
19:00+24вюв138381 0.6 1010139
22:00+23в118733 0.1 101118
28 сентября, ср
ср2801:00+23св119043 0.3 100915
04:00+23всв118980 0.2 100923
07:00+24вюв1486100 0.5 1011328
10:00+26юв237383 0.3 1011738
13:00+29ююв4363100 0.6 10081342
16:00+26ю357485 0.3 1007658
19:00+24юв138396 0.5 1010127
22:00+24в118786 0.3 101150
29 сентября, чт
чт2901:00+23в119057 0.8 100957
04:00+23в129291 0.8 100972
07:00+24в138691 1.1 1011369
10:00+28юв336792 0.3 10101136
13:00+29ююв336392 0.4 10071102
16:00+26ю3574100 0.1 1007551
19:00+25ююв1386100 0.4 1009144
22:00+24вюв128994 0.6 101197